Hudson Falls, NY

12:17 PM EDT on July 23, 2016 (GMT -0400)
Bennett Memorial

Weather History for KGFL - August, 2013

Change the Weather History Date:

Thursday, August 8, 2013

  Actual Average Record
Temperature  
Mean Temperature 76 °F 68 °F  
Max Temperature 83 °F 80 °F 94 °F (2001)
Min Temperature 69 °F 56 °F 44 °F (2009)
Degree Days  
Heating Degree Days 0 1  
Month to date heating degree days 9 8  
Since 1 June heating degree days 103 119  
Since 1 July heating degree days 14 29  
Cooling Degree Days 11 4  
Month to date cooling degree days 23 32  
Year to date cooling degree days 419 252  
Since 1 June cooling degree days 386 240  
Growing Degree Days 26 (Base 50)    
Moisture  
Dew Point 68 °F    
Average Humidity 81    
Maximum Humidity 100    
Minimum Humidity 62    
Precipitation  
Precipitation 0.01 in 0.12 in 1.48 in (1975)
Month to date precipitation 0.63 1.05  
Year to date precipitation 22.98 23.18  
Sea Level Pressure  
Sea Level Pressure 29.98 in    
Wind  
Wind Speed 6 mph (SSW)    
Max Wind Speed 25 mph    
Max Gust Speed 33 mph    
Visibility 9 miles    
Events Rain , Thunderstorm    
T = Trace of Precipitation, MM = Missing Value Source: NWS Daily Summary

Daily Weather History Graph

Daily Weather History Graph

Search for Another Location

Airport or City:

Trip Planner

Search our weather history database for the weather conditions in past years. The results will help you decide how hot, cold, wet, or windy it might be!

Date:

Astronomy

Aug. 08, 2013 Rise Set
Actual Time 5:52 AM EDT 8:07 PM EDT
Civil Twilight 5:20 AM EDT 8:38 PM EDT
Nautical Twilight 4:41 AM EDT 9:17 PM EDT
Astronomical Twilight 3:57 AM EDT 10:00 PM EDT
Moon 7:41 AM EDT (8/8) 8:38 PM EDT (8/8)
Length of Visible Light 15h 18m
Length of Day
14h 14m
Waxing Crescent, 3% of the Moon is Illuminated
Aug 8
Waxing Crescent
Aug 14
First Quarter
Aug 20
Full
Aug 28
Last Quarter
Sep 5
New

Hourly Weather History & Observations

Time (EDT) Temp. Heat Index Dew Point Humidity Pressure Visibility Wind Dir Wind Speed Gust Speed Precip Events Conditions
12:53 AM 70.0 °F - 63.0 °F 78% 30.01 in 10.0 mi South 6.9 mph - N/A   Overcast
1:10 AM 69.8 °F - 62.6 °F 78% 30.01 in 10.0 mi SSW 6.9 mph - N/A   Overcast
1:30 AM 69.8 °F - 62.6 °F 78% 30.00 in 10.0 mi South 6.9 mph - N/A   Overcast
1:53 AM 70.0 °F - 63.0 °F 78% 30.00 in 10.0 mi South 8.1 mph - N/A   Overcast
2:53 AM 70.0 °F - 64.0 °F 81% 29.99 in 10.0 mi SSW 8.1 mph - N/A   Overcast
3:53 AM 70.0 °F - 64.9 °F 84% 29.98 in 10.0 mi South 8.1 mph - N/A   Overcast
4:48 AM 69.8 °F - 66.2 °F 88% 29.97 in 10.0 mi SSW 8.1 mph - N/A   Overcast
4:53 AM 70.0 °F - 66.0 °F 87% 29.97 in 10.0 mi SSW 10.4 mph - N/A   Overcast
5:53 AM 70.0 °F - 66.0 °F 87% 29.98 in 10.0 mi SW 6.9 mph - N/A   Overcast
6:53 AM 70.0 °F - 66.9 °F 90% 29.99 in 8.0 mi South 4.6 mph - N/A   Overcast
7:53 AM 71.1 °F - 66.9 °F 87% 30.00 in 7.0 mi SSW 9.2 mph - N/A   Overcast
8:07 AM 71.6 °F - 66.2 °F 83% 30.00 in 8.0 mi SSW 6.9 mph - N/A   Overcast
8:29 AM 71.6 °F - 66.2 °F 83% 30.01 in 9.0 mi South 10.4 mph - N/A   Overcast
8:53 AM 72.0 °F - 66.9 °F 84% 30.01 in 9.0 mi SSW 8.1 mph - N/A   Overcast
9:53 AM 73.0 °F - 66.9 °F 81% 30.02 in 10.0 mi SW 6.9 mph - N/A   Overcast
10:53 AM 73.9 °F - 68.0 °F 82% 30.01 in 10.0 mi Variable 4.6 mph - N/A   Overcast
11:08 AM 73.4 °F - 66.2 °F 78% 30.02 in 10.0 mi SSW 5.8 mph - N/A   Overcast
11:15 AM 75.2 °F - 68.0 °F 78% 30.01 in 10.0 mi SSW 6.9 mph - N/A   Overcast
11:53 AM 77.0 °F - 66.9 °F 71% 29.99 in 10.0 mi SW 5.8 mph - N/A   Overcast
12:13 PM 78.8 °F - 66.2 °F 65% 29.99 in 10.0 mi South 8.1 mph - N/A   Mostly Cloudy
12:53 PM 80.1 °F 82.3 °F 66.9 °F 64% 29.98 in 10.0 mi South 8.1 mph - N/A   Mostly Cloudy
1:53 PM 81.0 °F 83.8 °F 68.0 °F 65% 29.99 in 10.0 mi South 4.6 mph - N/A   Mostly Cloudy
2:53 PM 82.0 °F 84.9 °F 68.0 °F 62% 29.97 in 10.0 mi SSE 11.5 mph - N/A   Scattered Clouds
3:53 PM 82.0 °F 85.9 °F 70.0 °F 67% 29.97 in 10.0 mi South 8.1 mph - N/A   Partly Cloudy
4:53 PM 81.0 °F 84.1 °F 69.1 °F 67% 29.94 in 10.0 mi SSW 9.2 mph - N/A   Partly Cloudy
5:10 PM 82.4 °F 86.3 °F 69.8 °F 66% 29.95 in 10.0 mi SSW 9.2 mph - N/A Thunderstorm Clear
5:27 PM 71.6 °F - 68.0 °F 88% 29.97 in 2.5 mi South 19.6 mph 33.4 mph 0.00 in Rain , Thunderstorm Light Thunderstorms and Rain
5:41 PM 71.6 °F - 69.8 °F 94% 29.96 in 10.0 mi South 8.1 mph - 0.01 in Rain , Thunderstorm Light Thunderstorms and Rain
5:53 PM 72.0 °F - 69.1 °F 91% 29.96 in 10.0 mi South 4.6 mph - 0.01 in   Mostly Cloudy
6:53 PM 75.9 °F - 71.1 °F 85% 29.96 in 10.0 mi SSW 3.5 mph - N/A   Scattered Clouds
7:53 PM 73.9 °F - 71.1 °F 91% 29.95 in 6.0 mi South 3.5 mph - 0.00 in   Clear
8:53 PM 72.0 °F - 71.1 °F 97% 29.97 in 6.0 mi Calm Calm - N/A   Clear
9:53 PM 73.9 °F - 71.1 °F 91% 29.96 in 8.0 mi Calm Calm - N/A   Overcast
10:27 PM 73.4 °F - 71.6 °F 94% 29.98 in 6.0 mi Calm Calm - N/A   Mostly Cloudy
10:53 PM 73.0 °F - 71.1 °F 93% 29.96 in 6.0 mi Calm Calm - N/A   Overcast
11:37 PM 71.6 °F - 69.8 °F 94% 29.96 in 1.8 mi Calm Calm - 0.00 in   Overcast
11:53 PM 71.1 °F - 71.1 °F 100% 29.95 in 2.0 mi Calm Calm - 0.00 in   Overcast